Wind_Speed
13 14 13 13 11 7 6 9 9 8 6 6 4 4 2 4 4 5 4 3 3 3 4 6 6 6 10 13 12 18 21 21 20 18 17 18 17 18 18 17 18 19 19 21 26 30 32 34 36 38 40 42 44 43 43 44 44 43 44 43 44 44 43
16 15 12 13 13 8 6 9 9 6 5 4 4 2 3 2 4 5 3 4 3 3 5 6 7 8 8 10 12 17 20 21 20 19 19 20 20 19 20 20 19 19 19 21 26 31 33 36 37 40 42 44 45 44 44 44 43 43 44 44 43 43 42
14 14 12 11 13 13 10 8 9 8 6 7 6 4 4 4 4 3 4 5 5 5 5 4 7 11 11 10 11 15 19 20 19 20 20 22 21 19 19 18 17 17 18 20 26 31 34 37 39 40 42 42 41 42 43 44 44 45 45 43 41 40 40
6 10 10 8 12 13 10 7 9 9 6 6 6 3 4 4 4 4 3 4 5 5 5 7 11 14 14 12 9 13 19 20 19 19 19 20 19 17 17 17 16 18 19 22 28 32 34 38 38 38 38 38 38 40 40 42 43 43 43 42 41 39 40
6 5 9 12 13 10 9 8 9 9 4 4 5 2 3 5 3 4 4 4 6 6 7 12 17 16 14 14 11 13 19 21 21 21 20 19 18 17 17 17 17 18 18 22 29 33 34 36 36 35 36 37 38 38 39 40 41 40 40 41 41 40 40
6 7 8 13 15 11 9 7 8 10 6 5 6 5 3 4 4 4 5 4 7 8 7 12 17 15 14 17 13 12 18 22 23 22 21 20 19 19 19 18 17 18 17 19 25 29 30 31 32 34 35 36 36 37 38 39 39 39 40 41 41 41 40
9 16 14 11 15 13 10 7 7 9 7 7 8 7 5 6 5 3 4 3 6 8 7 10 14 14 16 18 13 11 16 21 23 21 20 20 21 20 20 19 18 17 16 19 23 26 28 29 30 32 34 34 35 37 38 37 38 40 41 42 42 42 41
9 15 14 11 12 13 11 8 7 8 9 9 8 6 6 6 6 5 2 3 7 8 5 7 12 15 16 16 12 13 16 18 20 20 19 20 20 20 20 19 17 16 16 17 18 20 23 26 29 32 33 34 34 35 36 36 38 40 41 41 41 41 40
5 7 6 7 8 10 9 8 9 11 13 11 6 4 5 5 7 8 5 4 7 7 6 4 9 14 15 13 11 14 16 17 17 17 18 19 19 18 19 18 16 16 15 15 15 15 19 24 28 31 33 33 33 34 35 36 37 38 39 39 39 40 40
4 5 4 2 2 4 6 11 15 14 14 14 7 5 5 6 6 7 6 6 8 8 8 9 4 11 14 11 10 11 15 17 18 16 16 18 17 18 19 18 16 16 15 15 15 15 19 24 27 30 32 32 33 33 34 35 36 37 38 38 38 39 39
8 7 10 10 8 8 9 13 19 16 13 14 10 5 5 6 6 5 7 10 9 8 8 9 4 6 10 9 10 10 12 16 18 18 17 17 15 16 18 17 16 16 15 16 17 17 20 25 28 29 31 32 32 32 33 36 36 37 38 38 38 38 38
14 16 20 21 15 13 15 14 18 18 14 14 12 8 7 7 7 5 9 11 9 7 8 8 3 4 8 8 9 10 13 15 16 17 19 19 17 16 16 17 17 17 16 17 17 16 18 24 27 28 30 32 33 33 34 36 36 37 38 38 38 38 37
20 20 21 20 16 14 16 16 19 20 16 16 14 9 9 9 8 8 10 11 11 7 8 9 6 4 5 8 9 8 11 15 17 18 20 20 19 18 18 18 18 18 17 17 16 16 17 22 25 26 28 30 31 32 33 35 36 37 37 37 37 37 36
21 19 16 14 12 11 11 12 20 21 16 17 14 8 9 9 8 9 10 11 10 8 8 7 4 1 2 2 6 7 10 14 17 19 21 20 19 18 18 19 19 18 18 17 17 16 16 19 23 24 26 29 31 32 33 34 35 36 37 36 36 36 37
14 13 11 11 10 9 8 5 14 22 18 15 13 10 8 7 7 7 8 9 7 6 3 2 4 5 6 5 5 8 9 13 16 18 19 19 18 18 18 18 16 15 15 15 16 16 16 20 24 26 27 29 31 31 32 33 32 33 35 35 35 36 37
8 9 13 16 15 9 6 12 4 12 17 12 10 8 4 2 5 5 6 6 6 4 2 7 7 8 9 7 6 7 7 10 14 17 17 17 18 18 17 16 14 14 14 14 16 16 17 21 25 27 28 28 29 30 31 31 30 30 31 33 33 34 35
7 10 16 17 13 5 5 9 13 10 3 6 5 4 7 7 1 3 4 6 6 5 7 10 9 10 11 8 5 5 6 8 10 13 15 15 15 15 16 15 14 14 13 13 15 16 18 22 27 29 30 30 30 31 31 31 30 30 30 31 33 35 36
7 13 17 12 5 4 1 1 11 16 9 15 15 9 11 14 10 4 2 3 2 3 9 14 13 11 10 8 8 8 6 8 8 8 9 9 9 9 10 10 10 10 9 9 12 16 20 24 27 28 30 30 31 32 32 32 32 32 31 31 33 35 36
6 10 9 4 1 1 2 1 10 15 11 13 17 17 17 18 16 13 8 6 5 3 11 16 15 14 14 14 16 14 10 10 12 12 11 10 11 9 8 7 7 6 7 7 8 12 17 20 22 24 26 27 29 29 30 31 31 32 32 32 32 34 36
3 5 4 0 5 4 5 7 12 17 15 12 14 18 17 18 17 14 11 8 6 5 10 13 13 16 18 18 17 15 13 13 14 14 13 12 13 11 9 9 8 7 8 9 9 10 12 16 18 21 23 25 25 26 28 30 30 31 31 31 31 32 34
1 3 3 3 4 5 7 9 12 12 10 11 8 8 10 15 16 13 11 10 8 6 5 6 11 17 20 16 12 12 13 13 13 15 14 13 14 13 11 12 12 13 15 16 14 14 13 10 8 12 18 23 25 25 27 28 29 30 30 30 31 31 32
4 4 3 3 3 3 5 11 16 13 7 9 8 2 8 14 16 14 13 11 10 9 9 6 4 16 18 11 7 9 10 10 12 15 14 14 14 13 12 14 15 18 22 21 19 21 21 19 15 9 7 15 21 23 26 28 28 28 28 30 31 31 32
4 4 3 3 1 1 7 16 20 18 13 10 7 3 8 12 15 15 13 13 11 12 11 10 4 13 14 7 4 6 8 10 12 13 14 14 14 15 16 17 17 19 22 23 23 24 23 20 18 16 12 8 9 10 14 20 24 26 28 30 31 32 32
5 4 2 1 0 1 10 18 19 20 18 9 2 6 5 8 13 13 12 13 13 12 11 10 10 12 9 5 4 5 8 11 12 13 14 13 13 14 17 19 19 21 23 24 22 21 20 18 18 17 15 13 11 8 3 4 11 18 24 28 31 33 33
5 4 2 1 0 3 12 18 20 20 13 3 6 6 1 6 10 11 10 11 12 12 12 11 10 9 7 6 6 7 10 12 13 12 13 14 16 17 18 21 22 21 22 22 20 20 20 20 20 19 16 14 14 12 9 8 5 5 11 19 26 30 32
3 3 2 1 1 4 13 19 19 14 5 5 5 3 1 6 9 9 10 11 10 12 13 12 9 9 9 10 10 10 11 11 11 12 12 14 16 18 21 24 23 21 19 20 21 22 23 23 22 20 18 16 15 13 12 13 12 8 5 9 16 23 26
2 2 2 3 1 5 14 16 13 10 8 5 3 3 4 8 10 9 10 11 11 11 11 12 11 10 11 11 10 10 11 11 11 11 11 12 12 14 16 19 21 20 18 18 18 20 21 22 22 21 20 17 15 14 15 16 14 10 8 7 10 17 24
2 2 3 3 1 3 9 9 6 6 6 4 3 5 6 8 10 8 9 10 12 11 10 10 10 10 10 10 8 8 9 9 9 10 10 10 10 11 13 15 18 18 15 13 15 18 20 20 20 20 20 18 15 15 17 17 15 12 10 8 7 13 21
1 1 2 2 1 2 3 5 5 7 8 8 7 8 8 7 8 7 8 10 12 12 10 9 9 9 9 8 8 7 7 7 8 8 8 9 10 11 13 15 18 17 14 13 14 16 18 19 18 18 19 18 16 17 18 18 16 14 13 10 7 10 16
2 1 3 7 6 4 6 6 6 8 9 7 7 8 8 6 7 7 9 9 10 11 10 9 9 9 8 8 9 8 7 7 8 8 8 9 11 12 13 15 17 18 16 15 15 15 17 18 17 16 17 17 17 17 18 18 17 15 14 11 8 9 12
4 1 6 11 9 6 7 7 8 10 10 8 7 7 5 3 5 7 9 10 10 10 10 10 9 9 9 9 9 8 8 7 8 9 9 9 11 13 14 15 17 18 16 14 13 13 14 15 15 15 15 15 16 17 17 18 17 15 14 12 9 8 11
5 1 6 12 8 1 4 6 6 7 9 9 9 7 3 2 4 6 7 8 8 9 9 9 9 9 10 10 9 7 7 7 7 7 7 8 10 13 16 17 16 16 14 12 12 12 13 13 13 14 14 14 15 16 17 17 18 16 14 13 11 7 11
4 1 8 14 11 5 2 4 5 4 6 8 10 11 8 5 4 5 6 6 5 7 8 8 8 9 9 9 9 8 7 7 8 7 6 8 10 11 14 16 14 13 12 11 11 11 11 10 11 11 12 14 14 15 16 16 16 16 14 12 10 6 10
3 3 7 9 7 6 9 10 7 6 6 7 9 10 10 10 7 5 5 5 4 5 7 7 7 8 8 8 8 8 6 6 7 7 6 7 9 11 14 15 14 12 11 10 10 10 9 8 8 9 11 13 14 14 14 15 15 15 13 11 7 3 6
7 7 7 6 5 6 11 12 10 8 6 5 8 9 9 10 10 6 5 6 6 6 7 7 6 6 6 6 7 7 6 7 9 11 10 9 9 9 13 15 13 11 11 10 10 10 8 6 7 8 10 12 13 13 12 13 13 12 10 7 5 2 3
10 9 7 7 9 11 13 13 13 11 6 5 8 9 7 7 8 6 6 6 7 7 7 8 9 8 6 5 6 6 6 7 10 12 13 13 11 9 11 12 11 9 9 9 8 7 6 5 6 7 9 11 12 12 10 11 12 10 7 4 2 3 4
10 9 9 10 12 14 13 13 13 12 9 7 8 8 5 5 5 4 5 6 6 7 8 9 11 12 10 7 6 7 6 7 10 12 13 15 14 10 8 7 7 6 7 7 7 5 5 6 7 8 10 11 12 12 10 10 11 9 4 2 1 5 7
Wind_Direction
212 209 202 190 187 180 188 196 200 200 167 157 202 250 246 137 173 240 223 220 266 269 273 258 223 215 219 215 184 173 187 189 182 185 189 190 190 186 187 188 188 188 185 185 186 186 187 186 185 186 187 188 189 190 191 193 194 194 195 197 198 200 201
215 216 211 207 198 168 165 200 194 147 138 185 184 212 272 177 193 262 261 223 238 224 247 260 231 224 234 217 188 180 185 184 183 187 190 190 188 187 190 188 187 187 185 186 188 188 188 188 187 188 189 190 190 191 192 193 194 195 197 198 200 201 201
210 205 210 221 211 193 186 188 169 147 173 203 182 182 212 186 192 263 286 241 215 202 224 243 220 223 235 222 190 181 183 181 183 189 191 191 188 188 189 187 187 187 187 188 188 188 189 189 190 190 190 190 190 192 193 193 195 197 198 199 200 201 202
236 202 197 216 217 205 191 164 166 177 184 183 176 182 175 159 189 224 254 252 236 225 209 208 221 223 225 222 192 176 182 182 183 188 190 190 187 187 188 186 187 187 188 190 189 189 188 189 191 190 188 189 190 191 193 194 196 197 197 199 200 201 203
310 223 197 207 212 205 187 172 182 188 167 148 175 198 162 148 163 189 198 237 252 246 211 211 225 224 220 222 201 176 182 183 185 189 189 186 184 184 187 186 186 187 187 189 190 190 189 188 189 187 187 189 190 191 192 194 195 195 196 198 200 201 203
306 259 237 211 206 208 194 181 189 189 165 144 179 219 214 168 159 168 178 221 254 246 215 215 225 220 217 224 209 176 179 182 186 192 186 181 181 183 186 185 185 187 186 187 189 190 188 187 186 186 187 189 190 191 192 193 194 195 196 198 200 202 203
268 267 275 241 210 208 201 189 189 190 177 161 181 208 204 188 202 192 166 209 263 254 215 208 223 219 214 219 208 173 175 182 187 191 183 177 181 184 184 184 184 184 184 184 186 188 188 186 185 186 188 189 190 192 192 192 194 195 197 198 200 202 203
272 267 277 269 229 207 202 201 184 184 194 185 177 185 175 179 206 207 195 246 270 270 233 202 220 223 215 212 196 168 172 184 188 185 177 177 183 183 182 183 184 182 181 181 183 186 186 185 184 187 189 191 191 192 192 193 195 197 198 199 200 201 202
279 262 271 279 246 211 204 202 190 192 197 186 157 141 159 189 205 189 178 231 254 269 288 270 226 216 212 204 184 166 169 179 183 179 176 179 181 181 182 183 180 178 177 179 183 186 185 184 185 188 191 192 192 192 192 193 196 197 198 198 199 201 202
244 228 226 248 280 252 227 203 197 197 190 182 166 130 159 202 210 185 178 222 258 283 308 314 254 191 191 186 164 158 168 173 174 173 177 182 180 179 180 179 177 176 178 181 183 183 184 185 186 190 191 192 193 193 193 194 196 197 197 198 199 201 202
259 270 275 283 310 306 269 218 199 193 185 184 176 144 167 189 181 186 210 223 251 282 293 309 324 153 164 162 141 143 163 171 171 172 176 181 180 177 177 176 176 176 178 182 183 182 183 185 187 190 191 192 193 193 193 195 196 196 197 198 199 201 202
271 277 279 282 289 284 274 248 206 189 182 183 182 183 185 162 149 200 237 227 229 259 269 276 284 131 137 149 151 151 162 170 172 172 175 178 177 175 177 176 175 177 180 183 183 182 181 183 186 189 190 193 194 193 193 195 196 197 197 198 199 200 201
291 282 275 272 266 259 268 255 211 190 185 187 189 199 185 154 157 203 228 221 209 227 252 247 234 186 149 161 165 152 156 167 170 171 174 178 177 175 177 178 177 180 181 181 180 180 181 182 183 185 188 192 194 194 194 195 196 197 196 197 199 199 200
295 286 279 274 265 264 284 254 200 185 191 193 184 190 190 173 180 198 204 207 209 224 234 224 217 213 59 131 145 135 148 162 167 172 174 176 177 176 179 182 183 182 180 178 177 176 179 183 183 184 187 190 193 194 194 195 196 196 196 196 198 199 201
293 292 314 332 310 283 310 302 192 185 192 196 185 184 191 192 201 189 172 185 219 260 251 127 89 76 64 62 107 132 158 165 163 168 172 173 174 177 183 185 182 178 175 174 175 176 181 184 184 185 188 191 194 195 196 196 196 195 195 196 198 199 203
291 304 336 337 312 289 1 18 340 205 194 190 186 169 141 201 214 157 127 161 218 256 119 84 67 76 77 63 77 107 140 159 159 162 167 172 174 177 182 180 175 175 175 174 176 180 184 184 184 188 190 192 195 197 198 199 199 197 196 196 199 201 204
287 313 328 318 307 326 38 18 346 310 224 127 113 92 42 13 3 136 159 193 211 204 129 91 67 62 62 49 42 74 109 127 144 156 159 165 171 172 173 171 172 175 175 175 180 181 182 184 187 189 190 191 196 198 199 200 201 201 199 197 199 202 205
289 311 319 312 329 38 80 350 359 353 26 84 88 64 24 16 13 353 258 182 169 165 117 99 89 75 64 54 44 45 72 93 97 107 119 130 135 139 149 156 165 171 167 169 176 178 182 186 189 190 191 193 196 197 198 199 200 201 201 200 199 201 203
283 307 325 331 157 200 249 328 13 6 23 74 76 56 29 14 7 355 355 37 42 81 106 103 102 95 80 64 51 44 50 73 83 81 78 84 90 91 99 106 111 127 136 143 158 173 184 187 188 190 193 196 197 197 197 199 200 201 202 202 201 201 202
281 325 350 220 217 269 337 8 6 4 5 12 39 51 31 8 7 2 357 22 45 82 101 103 105 98 82 65 50 40 43 57 73 80 77 78 82 81 82 86 88 96 105 112 127 153 178 188 191 195 198 198 196 197 199 200 202 203 204 205 205 203 202
328 343 316 272 266 312 357 3 345 346 349 333 349 56 37 7 9 5 358 19 34 36 58 94 105 92 78 65 44 30 36 48 64 75 76 75 77 77 77 79 79 78 80 84 90 99 109 121 149 186 200 200 197 196 199 201 203 204 206 208 208 206 203
347 347 312 321 341 337 347 332 316 310 304 291 285 85 47 9 1 1 6 17 27 26 3 328 84 85 74 63 36 19 28 42 58 69 71 68 69 69 67 69 70 70 72 73 72 73 73 67 63 77 152 188 195 196 199 201 203 205 208 211 211 209 206
309 324 302 314 21 57 333 321 312 313 317 290 251 111 47 0 347 356 10 14 23 39 18 335 16 83 82 76 39 13 26 43 53 64 65 61 61 60 57 61 65 68 70 69 61 57 55 49 46 52 69 107 150 179 197 203 205 208 211 212 212 212 210
281 291 282 296 97 332 322 318 312 312 313 298 166 95 47 341 335 347 10 21 24 36 34 21 43 69 83 92 59 18 31 47 50 56 60 57 56 54 51 52 57 62 63 61 55 51 47 42 39 40 47 58 60 53 60 200 214 219 219 217 216 215 214
277 277 270 277 133 325 323 320 314 308 306 338 75 79 42 316 330 345 9 27 32 35 43 50 51 49 52 64 52 33 42 50 48 51 57 55 53 52 47 44 47 53 57 58 55 50 44 41 38 36 39 43 38 33 40 38 5 279 242 231 225 221 217
279 270 276 285 163 336 331 325 319 321 347 68 59 54 338 322 333 354 13 24 34 39 47 57 58 50 43 41 38 33 37 46 48 49 53 54 50 48 45 41 41 43 48 51 50 46 41 39 38 37 41 42 34 32 33 19 2 351 318 260 239 229 222
312 329 9 28 45 321 331 334 339 360 39 64 13 20 22 346 345 4 18 23 29 37 50 56 54 52 46 38 36 32 29 35 41 43 48 54 52 49 46 42 41 42 44 45 45 43 40 38 36 36 38 37 30 27 20 4 353 349 342 310 258 237 227
359 5 21 42 148 282 332 349 1 15 44 67 38 35 32 359 348 2 18 24 25 29 45 53 48 49 47 38 35 35 32 34 36 36 40 45 48 50 49 46 45 48 52 52 48 43 40 38 36 34 34 31 24 16 7 359 354 348 338 326 287 247 230
332 302 339 355 223 207 14 20 13 8 26 45 44 44 40 8 346 354 11 20 22 24 33 43 42 41 38 30 27 29 30 34 38 41 44 43 44 45 43 41 42 45 51 53 47 41 38 38 36 33 32 30 21 9 1 358 355 348 341 331 301 261 237
296 287 7 3 6 50 56 40 22 15 17 23 35 49 48 8 344 358 7 7 13 19 24 33 35 29 24 22 20 14 9 19 30 31 33 36 38 39 36 33 34 38 43 46 43 38 34 32 31 30 30 29 20 6 358 357 353 346 344 336 305 266 242
318 8 30 12 8 48 62 41 22 11 3 3 22 48 60 12 359 14 6 355 1 11 17 25 26 19 19 20 15 8 4 10 20 23 24 23 24 27 27 27 32 38 42 41 39 36 29 23 22 22 22 21 15 3 356 354 350 342 340 339 318 266 234
310 329 30 5 341 240 116 79 50 14 356 355 359 2 11 24 27 27 10 356 357 359 3 14 16 12 15 18 15 12 9 3 5 16 22 19 19 23 24 25 33 42 41 37 35 34 26 18 13 11 9 7 3 357 351 348 346 341 335 334 326 276 226
296 330 20 3 343 311 333 27 49 33 358 348 343 337 336 344 14 35 22 3 355 351 352 3 11 9 10 13 11 11 12 7 0 359 7 17 20 21 21 22 30 39 38 34 33 32 27 19 9 0 357 357 355 352 347 343 343 341 332 327 325 286 217
306 344 5 356 337 307 305 315 337 359 355 344 333 328 329 329 337 15 22 359 354 355 346 353 9 8 360 3 9 6 4 6 360 348 354 13 14 16 24 27 29 35 37 36 33 32 30 21 7 354 346 346 346 343 340 338 339 339 332 320 313 290 202
291 305 323 325 309 289 288 295 308 321 334 340 325 315 316 315 315 341 18 4 359 0 346 345 5 8 347 350 7 3 352 360 2 356 355 359 358 15 36 41 37 38 41 39 35 35 35 22 6 353 342 341 343 339 335 337 339 336 329 313 291 264 182
283 288 298 299 288 279 278 285 294 300 310 321 306 298 297 301 309 340 17 7 354 356 348 342 349 354 346 347 4 3 352 354 359 356 356 358 0 23 50 50 41 37 39 38 42 44 35 17 2 349 339 338 341 339 334 337 340 334 326 318 275 208 182
285 281 282 279 271 269 274 281 283 284 288 286 278 280 290 298 307 336 1 359 351 351 350 340 338 343 345 344 358 6 357 348 353 0 6 8 12 28 56 57 46 41 40 45 57 55 22 4 354 346 343 342 344 345 340 335 339 343 348 3 142 175 178
Height
668 672 671 668 682 697 698 698 705 700 690 699 720 727 716 716 733 729 714 712 704 694 686 672 669 675 672 671 674 677 681 680 685 692 692 693 695 696 698 700 703 705 707 710 714 717 721 725 729 733 736 739 743 746 750 755 759 763 766 769 772 775 779
666 660 665 665 666 675 690 700 693 685 688 695 708 727 727 728 742 730 711 711 709 708 703 680 671 676 675 673 674 675 677 679 684 686 685 686 688 690 692 694 697 700 703 705 709 713 717 720 724 727 731 734 738 742 746 750 755 758 762 765 769 772 776
663 653 667 676 665 658 671 679 673 681 704 710 708 722 732 738 746 734 718 713 707 706 702 684 676 675 671 671 673 674 676 678 680 681 680 681 682 686 689 691 695 698 700 702 704 709 713 716 720 723 727 732 736 740 743 747 751 754 758 763 767 771 774
665 658 670 684 676 662 662 668 668 673 689 701 704 708 715 727 740 737 728 721 708 695 685 678 674 667 663 666 670 672 673 673 674 675 676 678 680 684 687 690 693 694 696 698 700 705 708 712 716 721 726 731 734 738 741 745 748 752 756 761 764 768 771
679 672 666 669 671 670 670 676 679 676 680 688 694 698 698 708 727 733 732 730 709 680 666 665 663 657 655 656 661 667 666 665 667 666 668 672 676 680 683 685 688 690 692 695 698 702 705 708 714 719 724 728 731 735 738 741 746 750 754 757 761 764 767
698 678 657 650 655 661 667 674 676 676 680 688 702 710 699 693 707 715 720 725 702 664 651 653 651 650 648 645 650 659 660 659 660 659 660 665 670 674 677 680 683 686 689 692 696 701 704 708 712 716 720 724 728 731 735 738 743 746 750 753 757 760 764
700 675 654 647 647 649 655 663 665 667 673 681 698 713 702 693 698 696 702 714 690 651 641 644 641 641 640 636 640 651 655 653 653 654 656 660 664 667 671 674 678 682 685 689 693 698 702 705 708 713 717 720 724 727 731 735 739 742 745 749 753 756 760
689 667 655 648 644 646 655 660 658 661 667 668 675 687 689 694 700 695 705 716 686 645 636 639 636 632 632 632 635 644 650 649 648 651 655 658 661 663 667 670 674 677 682 687 691 695 699 702 706 710 713 716 720 724 728 732 735 738 742 745 750 753 756
695 676 671 664 654 651 655 657 654 655 658 661 667 673 680 692 694 692 706 714 683 644 633 634 634 631 630 631 633 637 642 645 647 650 652 655 658 662 666 669 673 677 682 686 689 692 695 699 702 705 709 713 717 721 725 728 732 735 739 743 747 750 752
719 701 693 683 675 666 655 648 650 651 653 659 668 676 687 695 690 686 695 697 675 647 635 633 632 631 630 630 633 635 637 640 643 648 651 653 656 661 665 669 673 677 680 683 685 688 692 695 698 702 706 710 714 718 722 725 729 732 736 740 743 746 749
733 719 703 687 686 688 671 651 646 650 652 655 663 676 687 688 685 688 685 676 670 657 642 639 637 632 630 632 635 637 638 638 640 643 648 651 655 659 662 666 670 674 678 681 682 685 688 691 695 699 703 707 710 714 718 721 725 728 732 736 739 742 745
730 721 707 692 690 691 678 658 648 647 650 654 661 671 676 674 683 693 678 665 672 664 645 642 641 633 631 631 632 635 637 637 638 641 645 649 654 658 660 664 668 672 675 677 680 682 685 689 693 696 700 704 707 710 713 717 721 724 727 731 734 737 741
725 713 702 692 686 679 667 655 645 641 646 653 659 664 664 664 674 680 668 663 671 659 641 640 639 633 632 629 627 630 632 634 636 640 644 649 653 657 660 663 665 667 671 673 677 680 683 686 690 694 698 701 704 707 710 713 716 719 723 727 730 734 737
720 704 692 681 674 666 656 645 636 636 642 647 651 657 659 658 658 657 657 663 663 648 637 637 635 632 632 629 627 629 632 634 636 639 644 647 651 656 658 659 661 662 666 669 673 678 681 684 688 691 695 698 700 704 706 709 712 715 719 723 726 729 732
718 697 684 676 669 663 654 643 632 631 637 644 650 653 655 658 655 652 657 664 659 646 639 638 635 632 633 634 633 632 632 633 636 640 643 645 649 653 655 656 659 660 664 668 671 675 678 680 683 687 691 694 697 700 703 706 709 712 716 719 722 725 728
724 696 688 686 671 655 653 656 652 642 637 642 647 647 652 659 657 656 663 666 659 649 641 639 638 636 637 640 638 635 634 633 635 639 643 644 646 649 652 655 658 660 663 667 670 672 674 677 681 684 687 691 695 697 700 703 707 711 714 717 720 723 725
728 701 698 694 675 666 674 681 677 660 642 637 645 655 665 668 662 663 664 658 652 646 639 641 646 645 645 647 643 639 636 635 636 638 639 642 644 646 649 652 655 659 661 663 666 668 671 675 678 680 684 688 691 694 698 701 705 708 711 713 717 719 722
733 712 704 694 686 691 692 681 675 669 655 652 665 679 683 676 670 668 660 649 647 646 641 646 653 652 652 650 645 641 638 638 641 642 642 643 645 647 649 652 655 658 660 662 664 667 670 673 676 680 684 686 688 692 695 699 701 704 707 710 712 715 718
736 721 710 703 702 699 685 671 670 670 662 660 668 679 682 679 676 672 663 655 653 651 646 646 649 650 650 647 646 645 643 642 644 648 649 649 649 652 654 656 658 660 661 663 666 668 671 675 678 681 684 685 688 691 693 696 698 700 703 705 708 710 713
733 728 725 718 704 686 675 673 671 668 667 666 671 682 690 685 680 677 673 665 658 655 651 646 645 644 643 646 651 652 649 646 646 649 653 653 653 656 658 659 661 662 662 664 667 669 672 675 678 680 682 684 687 689 691 694 695 697 700 702 703 706 708
728 733 734 719 699 688 688 689 685 683 688 685 684 695 700 689 681 682 679 670 664 661 657 651 644 637 640 656 665 661 656 654 650 649 652 653 655 657 659 660 662 663 664 666 669 671 673 676 678 679 680 682 684 686 688 690 692 694 696 697 699 701 703
728 734 736 722 710 709 709 705 693 686 688 686 681 692 701 693 685 682 679 675 671 666 664 660 645 637 653 678 681 670 664 660 654 653 654 654 655 658 659 661 663 665 667 669 672 674 674 676 678 679 679 680 682 683 685 686 689 691 692 693 695 697 699
736 737 737 730 727 725 717 707 691 678 679 677 673 688 706 702 690 684 682 681 677 671 670 665 650 650 675 694 687 673 669 664 658 657 658 658 659 660 661 664 666 668 670 672 674 675 675 678 679 679 679 680 681 682 684 685 686 687 687 689 691 693 696
738 735 732 729 731 729 717 704 692 680 671 665 674 704 720 709 696 691 687 684 682 676 673 669 663 670 687 693 685 675 670 665 661 660 661 662 663 663 664 666 668 669 670 672 674 677 678 680 680 680 680 680 681 682 683 684 685 685 686 687 688 690 692
735 732 729 726 730 729 716 703 693 678 666 672 697 723 723 709 702 698 690 687 686 680 676 677 679 684 686 684 681 676 671 670 668 665 664 665 665 666 668 668 669 670 672 674 677 679 681 682 681 681 680 680 681 682 682 683 684 685 685 686 686 687 688
732 727 726 727 730 726 716 705 691 674 677 701 721 722 715 712 708 700 693 690 687 684 683 684 687 689 687 683 681 678 676 676 675 672 669 669 669 670 671 670 671 672 674 676 678 680 681 682 682 682 681 681 682 682 682 683 684 683 684 684 684 685 686
732 731 733 737 739 729 717 710 701 692 702 722 724 715 714 716 709 701 698 695 690 689 689 689 691 692 690 689 687 684 681 680 678 676 675 674 675 675 675 676 676 676 677 679 680 682 684 684 684 683 683 683 683 684 684 684 683 683 682 682 681 682 683
740 744 743 740 738 730 722 721 721 717 717 720 718 716 719 719 712 707 703 699 696 694 693 693 695 694 693 694 692 690 689 686 684 682 680 679 679 679 679 681 681 682 683 684 684 686 686 686 686 685 684 685 685 685 685 684 683 682 681 681 680 680 680
742 745 740 732 729 728 727 728 727 723 717 716 717 718 720 722 720 713 707 704 701 698 696 696 696 695 695 695 693 692 691 690 687 686 685 683 682 682 682 683 683 684 685 685 686 687 687 687 687 687 686 687 686 686 686 684 683 682 681 680 679 678 679
739 738 735 731 729 729 730 729 727 724 719 717 718 719 722 726 724 717 712 708 704 701 700 699 698 698 697 695 693 691 690 688 686 685 684 683 682 682 682 682 683 684 684 685 686 687 687 687 688 688 688 688 688 688 687 685 683 682 681 679 678 677 677
743 741 739 736 734 732 731 731 730 728 723 719 718 720 724 726 723 717 713 710 706 704 703 701 701 701 698 696 695 693 691 690 688 686 685 684 682 682 682 682 683 684 685 686 687 688 689 689 689 689 690 689 689 689 687 685 684 682 680 679 678 677 677
744 742 741 738 734 731 729 731 733 732 728 724 720 719 720 722 721 717 714 711 709 707 703 701 702 701 699 698 698 696 695 694 691 690 689 687 685 685 685 685 686 686 687 689 690 690 691 691 690 691 690 690 690 689 687 686 684 682 681 680 678 677 676
745 742 741 740 735 728 725 727 731 732 730 727 724 720 718 718 718 718 717 715 712 709 706 704 702 701 701 700 699 699 699 698 696 694 693 691 690 689 688 688 688 689 690 691 691 692 692 692 692 692 691 691 690 689 688 687 685 683 681 680 678 677 676
754 748 747 747 744 738 731 728 729 729 729 729 727 724 719 716 715 717 719 718 715 712 710 707 705 706 705 703 702 702 701 700 699 697 695 694 693 691 689 689 690 691 692 693 693 693 693 693 693 693 692 691 690 689 688 687 685 683 682 680 679 678 677
759 752 749 748 747 744 737 730 729 729 728 729 729 726 723 718 714 713 715 717 715 714 713 711 709 709 708 706 705 704 703 701 700 698 696 695 693 691 690 690 691 693 694 694 694 694 694 694 695 694 693 692 691 690 689 687 686 684 682 681 680 679 678
757 752 750 748 745 742 737 732 730 728 727 728 728 725 722 719 715 712 712 713 713 713 711 709 708 707 707 706 705 704 703 701 699 698 698 696 694 692 691 691 694 696 696 695 695 695 695 696 696 695 695 694 692 690 689 688 686 684 683 681 680 680 679
752 749 747 745 741 736 733 731 729 727 727 727 725 722 720 719 716 714 712 711 712 712 711 709 706 705 705 704 703 703 702 701 700 699 698 696 694 693 692 694 697 697 697 696 696 696 696 697 697 696 696 694 693 691 689 688 686 685 683 682 681 680 680